Time,TemperatureF,DewpointF,PressureIn,WindDirection,WindDirectionDegrees,WindSpeedMPH,WindSpeedGustMPH,Humidity,HourlyPrecipIn,Conditions,Clouds,dailyrainin,SoftwareType,DateUTC
2013-08-01 00:00:00,8.4,3.2,29.49,NW,315,0.0,0.0,79,0.00,,SKC,0.35,VWS V14.01,2013-08-01 04:00:00,
2013-08-01 00:01:00,8.4,3.2,29.49,NW,315,0.0,0.0,79,0.00,,SKC,0.00,VWS V14.01,2013-08-01 04:01:00,
2013-08-01 00:02:00,8.4,3.2,29.49,NW,315,0.0,0.0,79,0.00,,SKC,0.00,VWS V14.01,2013-08-01 04:02:00,
2013-08-01 00:07:00,8.2,3.0,29.49,NW,315,0.0,0.0,79,0.00,,SKC,0.00,VWS V14.01,2013-08-01 04:07:00,
2013-08-01 00:12:00,8.2,3.0,29.49,NW,315,0.0,0.0,79,0.00,,SKC,0.00,VWS V14.01,2013-08-01 04:12:00,
2013-08-01 00:17:00,8.0,2.8,29.49,NW,315,0.0,0.0,79,0.00,,SKC,0.00,VWS V14.01,2013-08-01 04:17:00,
2013-08-01 00:22:00,7.7,2.6,29.48,NW,315,0.0,0.0,79,0.00,,SKC,0.00,VWS V14.01,2013-08-01 04:22:00,
2013-08-01 00:27:00,7.5,2.4,29.49,NW,315,0.0,0.0,79,0.00,,SKC,0.00,VWS V14.01,2013-08-01 04:27:00,
2013-08-01 00:32:00,7.1,2.0,29.48,NW,315,0.0,0.0,79,0.00,,SKC,0.00,VWS V14.01,2013-08-01 04:32:00,
2013-08-01 00:37:00,6.8,1.7,29.48,NW,315,0.0,0.0,79,0.00,,SKC,0.00,VWS V14.01,2013-08-01 04:37:00,
2013-08-01 00:42:00,6.4,1.3,29.48,NW,315,0.0,0.0,79,0.00,,SKC,0.00,VWS V14.01,2013-08-01 04:42:00,
2013-08-01 00:47:00,6.2,1.1,29.49,NW,315,0.0,0.0,79,0.00,,SKC,0.00,VWS V14.01,2013-08-01 04:47:00,
2013-08-01 00:52:00,6.0,0.9,29.49,NW,315,0.0,0.0,79,0.00,,SKC,0.00,VWS V14.01,2013-08-01 04:52:00,
2013-08-01 00:58:00,5.9,0.8,29.49,NW,315,0.0,0.0,79,0.00,,SKC,0.00,VWS V14.01,2013-08-01 04:58:00,
2013-08-01 01:03:00,5.9,0.8,29.50,NW,315,0.0,0.0,79,0.00,,SKC,0.00,VWS V14.01,2013-08-01 05:03:00,
2013-08-01 01:07:00,5.7,0.6,29.50,NW,315,0.0,0.0,79,0.00,,SKC,0.00,VWS V14.01,2013-08-01 05:07:00,
2013-08-01 01:12:00,5.5,0.4,29.50,NW,315,0.0,0.0,79,0.00,,SKC,0.00,VWS V14.01,2013-08-01 05:12:00,
2013-08-01 01:18:00,5.3,0.2,29.51,NW,315,0.0,0.0,79,0.00,,SKC,0.00,VWS V14.01,2013-08-01 05:18:00,
2013-08-01 01:23:00,5.3,0.2,29.50,NW,315,0.0,0.0,79,0.00,,SKC,0.00,VWS V14.01,2013-08-01 05:23:00,
2013-08-01 01:28:00,5.0,-0.1,29.50,NW,315,0.0,0.0,79,0.00,,SKC,0.00,VWS V14.01,2013-08-01 05:28:00,
2013-08-01 01:33:00,5.0,-0.1,29.50,NW,315,0.0,0.0,79,0.00,,SKC,0.00,VWS V14.01,2013-08-01 05:33:00,
2013-08-01 01:38:00,5.0,-0.1,29.50,NW,315,0.0,0.0,79,0.00,,SKC,0.00,VWS V14.01,2013-08-01 05:38:00,
2013-08-01 01:43:00,4.6,-0.5,29.49,NW,315,0.0,0.0,79,0.00,,SKC,0.00,VWS V14.01,2013-08-01 05:43:00,
2013-08-01 01:48:00,5.0,-0.1,29.50,NW,315,0.0,0.0,79,0.00,,SKC,0.00,VWS V14.01,2013-08-01 05:48:00,
2013-08-01 01:53:00,4.8,-0.3,29.49,NW,315,0.0,0.0,79,0.00,,SKC,0.00,VWS V14.01,2013-08-01 05:53:00,
2013-08-01 01:58:00,4.8,-0.3,29.49,NW,315,0.0,0.0,79,0.00,,SKC,0.00,VWS V14.01,2013-08-01 05:58:00,
2013-08-01 02:03:00,4.6,-0.5,29.49,NW,315,0.0,0.0,79,0.00,,SKC,0.00,VWS V14.01,2013-08-01 06:03:00,
2013-08-01 02:08:00,4.6,-0.5,29.50,NW,315,0.0,0.0,79,0.00,,SKC,0.00,VWS V14.01,2013-08-01 06:08:00,
2013-08-01 02:13:00,4.4,-0.7,29.49,NW,315,0.0,0.0,79,0.00,,SKC,0.00,VWS V14.01,2013-08-01 06:13:00,
2013-08-01 02:18:00,4.4,-0.7,29.50,NW,315,0.0,0.0,79,0.00,,SKC,0.00,VWS V14.01,2013-08-01 06:18:00,
2013-08-01 02:23:00,4.4,-0.7,29.49,NW,315,0.0,0.0,79,0.00,,SKC,0.00,VWS V14.01,2013-08-01 06:23:00,
2013-08-01 02:28:00,4.2,-0.9,29.49,NW,315,0.0,0.0,79,0.00,,SKC,0.00,VWS V14.01,2013-08-01 06:28:00,
2013-08-01 02:33:00,4.1,-0.9,29.49,NW,315,0.0,0.0,79,0.00,,SKC,0.00,VWS V14.01,2013-08-01 06:33:00,
2013-08-01 02:38:00,4.2,-0.9,29.49,NW,315,0.0,0.0,79,0.00,,SKC,0.00,VWS V14.01,2013-08-01 06:38:00,
2013-08-01 02:43:00,4.1,-0.9,29.49,NW,315,0.0,0.0,79,0.00,,SKC,0.00,VWS V14.01,2013-08-01 06:43:00,
2013-08-01 02:48:00,4.1,-0.9,29.49,NW,315,0.0,0.0,79,0.00,,SKC,0.00,VWS V14.01,2013-08-01 06:48:00,
2013-08-01 02:53:00,4.1,-0.9,29.49,NW,315,0.0,0.0,79,0.00,,SKC,0.00,VWS V14.01,2013-08-01 06:53:00,
2013-08-01 02:58:00,3.9,-1.4,29.49,NW,315,0.0,0.0,78,0.00,,SKC,0.00,VWS V14.01,2013-08-01 06:58:00,
2013-08-01 03:03:00,3.9,-1.4,29.48,NW,315,0.0,0.0,78,0.00,,SKC,0.00,VWS V14.01,2013-08-01 07:03:00,
2013-08-01 03:08:00,3.7,-1.6,29.48,NW,315,0.0,0.0,78,0.00,,SKC,0.00,VWS V14.01,2013-08-01 07:08:00,
2013-08-01 03:13:00,3.7,-1.6,29.49,NW,315,0.0,0.0,78,0.00,,SKC,0.00,VWS V14.01,2013-08-01 07:13:00,
2013-08-01 03:18:00,3.5,-1.8,29.48,NW,315,0.0,0.0,78,0.00,,SKC,0.00,VWS V14.01,2013-08-01 07:18:00,
2013-08-01 03:23:00,3.3,-2.0,29.48,NW,315,0.0,0.0,78,0.00,,SKC,0.00,VWS V14.01,2013-08-01 07:23:00,
2013-08-01 03:28:00,3.3,-2.0,29.47,NW,315,0.0,0.0,78,0.00,,SKC,0.00,VWS V14.01,2013-08-01 07:28:00,
2013-08-01 03:34:00,3.3,-2.0,29.48,NW,315,0.0,0.0,78,0.00,,SKC,0.00,VWS V14.01,2013-08-01 07:34:00,
2013-08-01 03:39:00,3.3,-2.0,29.48,NW,315,0.0,0.0,78,0.00,,SKC,0.00,VWS V14.01,2013-08-01 07:39:00,
2013-08-01 03:44:00,3.0,-2.3,29.48,NW,315,0.0,0.0,78,0.00,,SKC,0.00,VWS V14.01,2013-08-01 07:44:00,
2013-08-01 03:49:00,2.8,-2.5,29.48,NW,315,0.0,0.0,78,0.00,,SKC,0.00,VWS V14.01,2013-08-01 07:49:00,
2013-08-01 03:54:00,3.0,-2.3,29.47,NW,315,0.0,0.0,78,0.00,,SKC,0.00,VWS V14.01,2013-08-01 07:54:00,
2013-08-01 03:59:00,2.8,-2.5,29.48,NW,315,0.0,0.0,78,0.00,,SKC,0.00,VWS V14.01,2013-08-01 07:59:00,
2013-08-01 04:04:00,2.6,-2.7,29.49,NW,315,0.0,0.0,78,0.00,,SKC,0.00,VWS V14.01,2013-08-01 08:04:00,
2013-08-01 04:09:00,2.6,-2.7,29.49,NW,315,0.0,0.0,78,0.00,,SKC,0.00,VWS V14.01,2013-08-01 08:09:00,
2013-08-01 04:14:00,2.4,-2.9,29.49,NW,315,0.0,0.0,78,0.00,,SKC,0.00,VWS V14.01,2013-08-01 08:14:00,
2013-08-01 04:19:00,2.3,-3.0,29.49,NW,315,0.0,0.0,78,0.00,,SKC,0.00,VWS V14.01,2013-08-01 08:19:00,
2013-08-01 04:24:00,2.3,-3.0,29.49,NW,315,0.0,0.0,78,0.00,,SKC,0.00,VWS V14.01,2013-08-01 08:24:00,
2013-08-01 04:29:00,2.4,-2.9,29.49,NW,315,0.0,0.0,78,0.00,,SKC,0.00,VWS V14.01,2013-08-01 08:29:00,
2013-08-01 04:34:00,2.3,-3.0,29.49,NW,315,0.0,0.0,78,0.00,,SKC,0.00,VWS V14.01,2013-08-01 08:34:00,
2013-08-01 04:40:00,2.4,-2.9,29.49,NW,315,0.0,0.0,78,0.00,,SKC,0.00,VWS V14.01,2013-08-01 08:40:00,
2013-08-01 04:45:00,2.3,-3.0,29.49,NW,315,0.0,0.0,78,0.00,,SKC,0.00,VWS V14.01,2013-08-01 08:45:00,
2013-08-01 04:51:00,2.1,-3.2,29.49,NW,315,0.0,0.0,78,0.00,,SKC,0.00,VWS V14.01,2013-08-01 08:51:00,
2013-08-01 04:56:00,2.1,-3.2,29.49,NW,315,0.0,0.0,78,0.00,,SKC,0.00,VWS V14.01,2013-08-01 08:56:00,
2013-08-01 05:02:00,1.9,-3.4,29.49,NW,315,0.0,0.0,78,0.00,,SKC,0.00,VWS V14.01,2013-08-01 09:02:00,
2013-08-01 05:07:00,1.9,-3.4,29.48,NW,315,0.0,0.0,78,0.00,,SKC,0.00,VWS V14.01,2013-08-01 09:07:00,
2013-08-01 05:12:00,1.7,-3.6,29.49,NW,315,0.0,0.0,78,0.00,,SKC,0.00,VWS V14.01,2013-08-01 09:12:00,
2013-08-01 05:17:00,1.7,-3.6,29.49,NW,315,0.0,0.0,78,0.00,,SKC,0.00,VWS V14.01,2013-08-01 09:17:00,
2013-08-01 05:22:00,1.5,-3.8,29.49,NW,315,0.0,0.0,78,0.00,,SKC,0.00,VWS V14.01,2013-08-01 09:22:00,
2013-08-01 05:28:00,1.5,-3.8,29.49,NW,315,0.0,0.0,78,0.00,,SKC,0.00,VWS V14.01,2013-08-01 09:28:00,
2013-08-01 05:33:00,1.2,-4.1,29.50,NW,315,0.0,0.0,78,0.00,,SKC,0.00,VWS V14.01,2013-08-01 09:33:00,
2013-08-01 05:38:00,1.0,-4.2,29.50,NW,315,0.0,0.0,78,0.00,,SKC,0.00,VWS V14.01,2013-08-01 09:38:00,
2013-08-01 05:44:00,1.0,-4.2,29.50,NW,315,0.0,0.0,78,0.00,,SKC,0.00,VWS V14.01,2013-08-01 09:44:00,
2013-08-01 05:49:00,1.0,-4.2,29.50,NW,315,0.0,0.0,78,0.00,,SKC,0.00,VWS V14.01,2013-08-01 09:49:00,
2013-08-01 05:54:00,1.0,-4.2,29.50,NW,315,0.0,0.0,78,0.00,,SKC,0.00,VWS V14.01,2013-08-01 09:54:00,
2013-08-01 06:00:00,0.8,-4.4,29.51,NW,315,0.0,0.0,78,0.00,,SKC,0.00,VWS V14.01,2013-08-01 10:00:00,
2013-08-01 06:06:00,0.5,-4.7,29.51,NW,315,0.0,0.0,78,0.00,,SKC,0.00,VWS V14.01,2013-08-01 10:06:00,
2013-08-01 06:12:00,0.5,-4.7,29.51,NW,315,0.0,0.0,78,0.00,,SKC,0.00,VWS V14.01,2013-08-01 10:12:00,
2013-08-01 06:17:00,0.5,-4.7,29.50,NW,315,0.0,0.0,78,0.00,,SKC,0.00,VWS V14.01,2013-08-01 10:17:00,
2013-08-01 06:22:00,0.5,-4.7,29.50,NW,315,0.0,0.0,78,0.00,,SKC,0.00,VWS V14.01,2013-08-01 10:22:00,
2013-08-01 06:27:00,0.3,-4.9,29.51,NW,315,0.0,0.0,78,0.00,,SKC,0.00,VWS V14.01,2013-08-01 10:27:00,
2013-08-01 06:33:00,0.3,-4.9,29.50,NW,315,0.0,0.0,78,0.00,,SKC,0.00,VWS V14.01,2013-08-01 10:33:00,
2013-08-01 06:38:00,0.3,-4.9,29.51,NW,315,0.0,0.0,78,0.00,,SKC,0.00,VWS V14.01,2013-08-01 10:38:00,
2013-08-01 06:43:00,0.3,-4.9,29.51,NW,315,0.0,0.0,78,0.00,,SKC,0.00,VWS V14.01,2013-08-01 10:43:00,
2013-08-01 06:48:00,0.3,-4.9,29.51,NW,315,0.0,0.0,78,0.00,,SKC,0.00,VWS V14.01,2013-08-01 10:48:00,
2013-08-01 06:54:00,0.3,-4.9,29.51,NW,315,0.0,0.0,78,0.00,,SKC,0.00,VWS V14.01,2013-08-01 10:54:00,
2013-08-01 06:59:00,0.3,-4.9,29.51,NW,315,0.0,0.0,78,0.00,,SKC,0.00,VWS V14.01,2013-08-01 10:59:00,
2013-08-01 07:04:00,0.3,-4.9,29.51,NW,315,0.0,0.0,78,0.00,,SKC,0.00,VWS V14.01,2013-08-01 11:04:00,
2013-08-01 07:09:00,0.5,-4.7,29.51,NW,315,0.0,0.0,78,0.00,,SKC,0.00,VWS V14.01,2013-08-01 11:09:00,
2013-08-01 07:14:00,0.3,-4.9,29.51,NW,315,0.0,0.0,78,0.00,,SKC,0.00,VWS V14.01,2013-08-01 11:14:00,
2013-08-01 07:20:00,0.3,-4.9,29.51,NW,315,0.0,0.0,78,0.00,,SKC,0.00,VWS V14.01,2013-08-01 11:20:00,
2013-08-01 07:25:00,0.5,-4.7,29.51,NW,315,0.0,0.0,78,0.00,,SKC,0.00,VWS V14.01,2013-08-01 11:25:00,
2013-08-01 07:30:00,0.5,-4.7,29.51,NW,315,0.0,0.0,78,0.00,,SKC,0.00,VWS V14.01,2013-08-01 11:30:00,
2013-08-01 07:35:00,0.5,-4.7,29.51,NW,315,0.0,0.0,78,0.00,,SKC,0.00,VWS V14.01,2013-08-01 11:35:00,
2013-08-01 07:40:00,0.5,-4.7,29.51,NW,315,0.0,0.0,78,0.00,,SKC,0.00,VWS V14.01,2013-08-01 11:40:00,
2013-08-01 07:45:00,0.5,-4.7,29.51,NW,315,0.0,0.0,78,0.00,,SKC,0.00,VWS V14.01,2013-08-01 11:45:00,
2013-08-01 07:50:00,0.5,-4.7,29.51,NW,315,0.0,0.0,78,0.00,,SKC,0.00,VWS V14.01,2013-08-01 11:50:00,
2013-08-01 07:56:00,0.3,-4.9,29.51,NW,315,0.0,0.0,78,0.00,,SKC,0.00,VWS V14.01,2013-08-01 11:56:00,
2013-08-01 08:01:00,0.5,-4.7,29.51,NW,315,0.0,0.0,78,0.00,,SKC,0.00,VWS V14.01,2013-08-01 12:01:00,
2013-08-01 08:07:00,0.5,-4.7,29.51,NW,315,0.0,0.0,78,0.00,,SKC,0.00,VWS V14.01,2013-08-01 12:07:00,
2013-08-01 08:12:00,0.5,-4.7,29.51,NW,315,0.0,0.0,78,0.00,,SKC,0.00,VWS V14.01,2013-08-01 12:12:00,
2013-08-01 08:17:00,0.6,-4.6,29.51,NW,315,0.0,0.0,78,0.00,,SKC,0.00,VWS V14.01,2013-08-01 12:17:00,
2013-08-01 08:22:00,0.8,-4.7,29.52,NW,315,0.0,0.0,77,0.00,,SKC,0.00,VWS V14.01,2013-08-01 12:22:00,
2013-08-01 08:27:00,0.6,-4.9,29.52,NW,315,0.0,0.0,77,0.00,,SKC,0.00,VWS V14.01,2013-08-01 12:27:00,
2013-08-01 08:32:00,0.8,-4.7,29.52,NW,315,0.0,0.0,77,0.00,,SKC,0.00,VWS V14.01,2013-08-01 12:32:00,
2013-08-01 08:37:00,1.0,-4.5,29.52,NW,315,0.0,0.0,77,0.00,,SKC,0.00,VWS V14.01,2013-08-01 12:37:00,
2013-08-01 08:43:00,1.2,-4.3,29.51,NW,315,0.0,0.0,77,0.00,,SKC,0.00,VWS V14.01,2013-08-01 12:43:00,
2013-08-01 08:48:00,1.2,-4.3,29.52,NW,315,0.0,0.0,77,0.00,,SKC,0.00,VWS V14.01,2013-08-01 12:48:00,
2013-08-01 08:53:00,1.4,-4.1,29.51,NW,315,0.0,0.0,77,0.00,,SKC,0.00,VWS V14.01,2013-08-01 12:53:00,
2013-08-01 08:58:00,1.5,-4.0,29.51,NW,315,0.0,0.0,77,0.00,,SKC,0.00,VWS V14.01,2013-08-01 12:58:00,
2013-08-01 09:03:00,1.7,-3.8,29.51,NW,315,0.0,0.0,77,0.00,,SKC,0.00,VWS V14.01,2013-08-01 13:03:00,
2013-08-01 09:08:00,1.9,-3.6,29.51,NW,315,0.0,0.0,77,0.00,,SKC,0.00,VWS V14.01,2013-08-01 13:08:00,
2013-08-01 09:13:00,2.3,-3.2,29.52,NW,315,0.0,0.0,77,0.00,,SKC,0.00,VWS V14.01,2013-08-01 13:13:00,
2013-08-01 09:18:00,2.3,-3.2,29.52,NW,315,0.0,0.0,77,0.00,,SKC,0.00,VWS V14.01,2013-08-01 13:18:00,
2013-08-01 09:23:00,2.6,-3.0,29.52,NW,315,0.0,0.0,77,0.00,,SKC,0.00,VWS V14.01,2013-08-01 13:23:00,
2013-08-01 09:28:00,2.8,-3.0,29.52,NW,315,0.0,0.0,76,0.00,,SKC,0.00,VWS V14.01,2013-08-01 13:28:00,
2013-08-01 09:33:00,3.3,-2.5,29.52,NW,315,0.0,0.0,76,0.00,,SKC,0.00,VWS V14.01,2013-08-01 13:33:00,
2013-08-01 09:38:00,3.7,-2.2,29.52,NW,315,0.0,0.0,76,0.00,,SKC,0.00,VWS V14.01,2013-08-01 13:38:00,
2013-08-01 09:43:00,3.9,-2.0,29.52,NW,315,0.0,0.0,76,0.00,,SKC,0.00,VWS V14.01,2013-08-01 13:43:00,
2013-08-01 09:49:00,4.1,-2.0,29.52,NW,315,0.0,0.0,75,0.00,,SKC,0.00,VWS V14.01,2013-08-01 13:49:00,
2013-08-01 09:54:00,4.4,-1.8,29.52,NW,315,0.0,0.0,75,0.00,,SKC,0.00,VWS V14.01,2013-08-01 13:54:00,
2013-08-01 09:59:00,4.6,-1.6,29.52,NW,315,0.0,0.0,75,0.00,,SKC,0.00,VWS V14.01,2013-08-01 13:59:00,
2013-08-01 10:04:00,5.1,-1.1,29.52,NW,315,0.0,0.0,75,0.00,,SKC,0.00,VWS V14.01,2013-08-01 14:04:00,
2013-08-01 10:09:00,5.7,-0.8,29.52,NW,315,0.0,0.0,74,0.00,,SKC,0.00,VWS V14.01,2013-08-01 14:09:00,
2013-08-01 10:16:00,6.4,-0.4,29.52,NW,315,0.0,0.0,73,0.00,,SKC,0.00,VWS V14.01,2013-08-01 14:16:00,
2013-08-01 10:21:00,6.9,0.1,29.53,NW,315,0.0,0.0,73,0.00,,SKC,0.00,VWS V14.01,2013-08-01 14:21:00,
2013-08-01 10:27:00,7.7,0.6,29.52,NW,315,0.0,0.0,72,0.00,,SKC,0.00,VWS V14.01,2013-08-01 14:27:00,
2013-08-01 10:32:00,8.7,1.5,29.52,NW,315,0.0,0.0,72,0.00,,SKC,0.00,VWS V14.01,2013-08-01 14:32:00,
2013-08-01 10:38:00,8.9,1.4,29.52,NW,315,0.0,0.0,71,0.00,,SKC,0.00,VWS V14.01,2013-08-01 14:38:00,
2013-08-01 10:43:00,10.2,2.7,29.52,NW,315,0.0,0.0,71,0.00,,SKC,0.00,VWS V14.01,2013-08-01 14:43:00,
2013-08-01 10:48:00,10.7,2.9,29.52,NW,315,0.0,0.0,70,0.00,,SKC,0.00,VWS V14.01,2013-08-01 14:48:00,
2013-08-01 10:53:00,11.4,3.5,29.52,NW,315,0.0,0.0,70,0.00,,SKC,0.00,VWS V14.01,2013-08-01 14:53:00,
2013-08-01 10:59:00,13.4,5.1,29.52,NW,315,0.0,0.0,69,0.00,,SKC,0.00,VWS V14.01,2013-08-01 14:59:00,
2013-08-01 11:04:00,14.9,5.9,29.52,NW,315,0.0,0.0,67,0.00,,SKC,0.00,VWS V14.01,2013-08-01 15:04:00,
2013-08-01 11:10:00,15.6,5.9,29.52,NW,315,0.0,0.0,65,0.00,,SKC,0.00,VWS V14.01,2013-08-01 15:10:00,
2013-08-01 11:15:00,16.7,6.7,29.52,NW,315,0.0,0.0,64,0.00,,SKC,0.00,VWS V14.01,2013-08-01 15:15:00,
2013-08-01 11:20:00,17.7,7.3,29.51,NW,315,0.0,0.0,63,0.00,,SKC,0.00,VWS V14.01,2013-08-01 15:20:00,
2013-08-01 11:25:00,19.0,8.1,29.52,NW,315,0.0,0.0,62,0.00,,SKC,0.00,VWS V14.01,2013-08-01 15:25:00,
2013-08-01 11:30:00,20.6,6.6,29.51,NW,315,0.0,0.0,54,0.00,,SKC,0.00,VWS V14.01,2013-08-01 15:30:00,
2013-08-01 11:35:00,21.5,4.9,29.52,NW,315,0.0,0.0,48,0.00,,SKC,0.00,VWS V14.01,2013-08-01 15:35:00,
2013-08-01 11:41:00,16.3,-18.7,29.51,NW,315,0.0,0.0,19,0.00,,SKC,0.00,VWS V14.01,2013-08-01 15:41:00,
2013-08-01 11:46:00,19.5,-16.0,29.52,NW,315,0.0,0.0,19,0.00,,SKC,0.00,VWS V14.01,2013-08-01 15:46:00,
2013-08-01 11:52:00,23.3,-12.9,29.52,NW,315,0.0,0.0,19,0.00,,SKC,0.00,VWS V14.01,2013-08-01 15:52:00,
2013-08-01 11:57:00,26.2,-10.4,29.52,NW,315,0.0,0.0,19,0.00,,SKC,0.00,VWS V14.01,2013-08-01 15:57:00,
2013-08-01 12:02:00,30.9,-6.5,29.52,NW,315,0.0,0.0,19,0.00,,SKC,0.00,VWS V14.01,2013-08-01 16:02:00,
2013-08-01 12:07:00,33.4,-4.4,29.51,NW,315,0.0,0.0,19,0.00,,SKC,0.00,VWS V14.01,2013-08-01 16:07:00,
2013-08-01 12:12:00,35.6,-2.6,29.52,NW,315,0.0,0.0,19,0.00,,SKC,0.00,VWS V14.01,2013-08-01 16:12:00,
2013-08-01 12:18:00,39.2,0.4,29.52,NW,315,0.0,0.0,19,0.00,,SKC,0.00,VWS V14.01,2013-08-01 16:18:00,
2013-08-01 12:23:00,41.1,2.0,29.52,NW,315,0.0,0.0,19,0.00,,SKC,0.00,VWS V14.01,2013-08-01 16:23:00,
2013-08-01 12:28:00,44.0,4.4,29.52,NW,315,0.0,0.0,19,0.00,,SKC,0.00,VWS V14.01,2013-08-01 16:28:00,
2013-08-01 12:33:00,45.8,5.9,29.52,NW,315,0.0,0.0,19,0.00,,SKC,0.00,VWS V14.01,2013-08-01 16:33:00,
2013-08-01 12:38:00,48.0,7.7,29.52,NW,315,0.0,0.0,19,0.00,,SKC,0.00,VWS V14.01,2013-08-01 16:38:00,
2013-08-01 12:43:00,50.9,10.1,29.52,NW,315,0.0,0.0,19,0.00,,SKC,0.00,VWS V14.01,2013-08-01 16:43:00,
2013-08-01 12:48:00,52.1,11.1,29.52,NW,315,0.0,0.0,19,0.00,,SKC,0.00,VWS V14.01,2013-08-01 16:48:00,
2013-08-01 12:53:00,54.3,12.9,29.52,NW,315,0.0,0.0,19,0.00,,SKC,0.00,VWS V14.01,2013-08-01 16:53:00,
2013-08-01 12:59:00,55.5,13.9,29.52,NW,315,0.0,0.0,19,0.00,,SKC,0.00,VWS V14.01,2013-08-01 16:59:00,
2013-08-01 13:04:00,57.9,15.9,29.52,NW,315,0.0,0.0,19,0.00,,SKC,0.00,VWS V14.01,2013-08-01 17:04:00,
2013-08-01 13:09:00,59.5,17.2,29.51,NW,315,0.0,0.0,19,0.00,,SKC,0.00,VWS V14.01,2013-08-01 17:09:00,
2013-08-01 13:14:00,61.8,19.1,29.51,NW,315,0.0,0.0,19,0.00,,SKC,0.00,VWS V14.01,2013-08-01 17:14:00,
2013-08-01 13:20:00,63.3,35.9,29.52,NW,315,0.0,0.0,36,0.00,,SKC,0.00,VWS V14.01,2013-08-01 17:20:00,
2013-08-01 13:25:00,64.5,42.1,29.51,NW,315,0.0,0.0,44,0.00,,SKC,0.00,VWS V14.01,2013-08-01 17:25:00,
2013-08-01 13:30:00,65.3,43.4,29.51,NW,315,0.0,0.0,45,0.00,,SKC,0.00,VWS V14.01,2013-08-01 17:30:00,
2013-08-01 13:35:00,65.6,44.8,29.51,NW,315,0.0,0.0,47,0.00,,SKC,0.00,VWS V14.01,2013-08-01 17:35:00,
2013-08-01 13:41:00,66.7,45.8,29.51,NW,315,0.0,0.0,47,0.00,,SKC,0.00,VWS V14.01,2013-08-01 17:41:00,
2013-08-01 13:46:00,67.8,46.3,29.51,NW,315,0.0,0.0,46,0.00,,SKC,0.00,VWS V14.01,2013-08-01 17:46:00,
2013-08-01 13:52:00,68.7,46.5,29.51,NW,315,0.0,0.0,45,0.00,,SKC,0.00,VWS V14.01,2013-08-01 17:52:00,
2013-08-01 13:57:00,69.2,47.0,29.51,NW,315,0.0,0.0,45,0.00,,SKC,0.00,VWS V14.01,2013-08-01 17:57:00,
2013-08-01 14:02:00,69.2,47.6,29.51,NW,315,0.0,0.0,46,0.00,,SKC,0.00,VWS V14.01,2013-08-01 18:02:00,
2013-08-01 14:07:00,69.2,48.1,29.51,NW,315,0.0,0.0,47,0.00,,SKC,0.00,VWS V14.01,2013-08-01 18:07:00,
2013-08-01 14:12:00,69.8,49.2,29.51,NW,315,0.0,0.0,48,0.00,,SKC,0.00,VWS V14.01,2013-08-01 18:12:00,
2013-08-01 14:17:00,69.9,49.3,29.51,North,0,0.0,0.0,48,0.00,,SKC,0.00,VWS V14.01,2013-08-01 18:17:00,
2013-08-01 14:22:00,69.9,49.9,29.51,North,0,0.0,0.0,49,0.00,,SKC,0.00,VWS V14.01,2013-08-01 18:22:00,
2013-08-01 14:27:00,69.9,50.4,29.50,North,0,0.0,0.0,50,0.00,,SKC,0.00,VWS V14.01,2013-08-01 18:27:00,
2013-08-01 14:32:00,69.9,50.4,29.50,North,0,0.0,0.0,50,0.00,,SKC,0.00,VWS V14.01,2013-08-01 18:32:00,
2013-08-01 14:37:00,70.5,51.0,29.49,North,0,0.0,0.0,50,0.00,,SKC,0.00,VWS V14.01,2013-08-01 18:37:00,
2013-08-01 14:42:00,71.4,50.7,29.50,North,0,0.0,0.0,48,0.00,,SKC,0.00,VWS V14.01,2013-08-01 18:42:00,
2013-08-01 14:47:00,71.9,51.2,29.50,North,0,0.0,0.0,48,0.00,,SKC,0.00,VWS V14.01,2013-08-01 18:47:00,
2013-08-01 14:52:00,72.3,51.5,29.50,NNW,338,0.0,0.0,48,0.00,,SKC,0.00,VWS V14.01,2013-08-01 18:52:00,
2013-08-01 14:58:00,71.9,50.6,29.50,WNW,292,0.0,0.0,47,0.00,,SKC,0.00,VWS V14.01,2013-08-01 18:58:00,
2013-08-01 15:03:00,72.3,51.0,29.50,WNW,292,0.0,0.0,47,0.00,,SKC,0.00,VWS V14.01,2013-08-01 19:03:00,
2013-08-01 15:08:00,72.8,50.2,29.50,WNW,292,0.0,0.0,45,0.00,,SKC,0.00,VWS V14.01,2013-08-01 19:08:00,
2013-08-01 15:14:00,73.5,50.3,29.50,WNW,292,0.0,0.0,44,0.00,,SKC,0.00,VWS V14.01,2013-08-01 19:14:00,
2013-08-01 15:19:00,73.9,51.2,29.49,WNW,292,0.0,0.0,45,0.00,,SKC,0.00,VWS V14.01,2013-08-01 19:19:00,
2013-08-01 15:25:00,75.0,51.6,29.49,WNW,292,0.0,0.0,44,0.00,,SKC,0.00,VWS V14.01,2013-08-01 19:25:00,
2013-08-01 15:30:00,75.5,51.5,29.49,WNW,292,0.0,0.0,43,0.00,,SKC,0.00,VWS V14.01,2013-08-01 19:30:00,
2013-08-01 15:35:00,76.4,51.6,29.49,WNW,292,0.0,0.0,42,0.00,,SKC,0.00,VWS V14.01,2013-08-01 19:35:00,
2013-08-01 15:40:00,76.8,52.6,29.49,WNW,292,0.0,0.0,43,0.00,,SKC,0.00,VWS V14.01,2013-08-01 19:40:00,
2013-08-01 15:45:00,78.0,52.4,29.49,WNW,292,0.0,0.0,41,0.00,,SKC,0.00,VWS V14.01,2013-08-01 19:45:00,
2013-08-01 15:51:00,78.0,51.1,29.49,NW,315,0.4,0.4,39,0.00,,SKC,0.00,VWS V14.01,2013-08-01 19:51:00,
2013-08-01 15:56:00,77.3,51.8,29.49,NW,315,0.0,0.4,41,0.00,,SKC,0.00,VWS V14.01,2013-08-01 19:56:00,
2013-08-01 16:02:00,77.7,51.5,29.49,NW,315,0.0,0.0,40,0.00,,SKC,0.00,VWS V14.01,2013-08-01 20:02:00,
2013-08-01 16:08:00,77.9,51.7,29.49,NW,315,0.0,0.0,40,0.00,,SKC,0.00,VWS V14.01,2013-08-01 20:08:00,
2013-08-01 16:13:00,77.5,49.9,29.50,NNE,22,0.0,12.0,38,0.00,,SKC,0.00,VWS V14.01,2013-08-01 20:13:00,
2013-08-01 16:18:00,76.6,47.7,29.49,North,0,4.0,4.0,36,0.00,,SKC,0.00,VWS V14.01,2013-08-01 20:18:00,
2013-08-01 16:23:00,75.7,47.6,29.49,ENE,68,7.6,7.6,37,0.00,,SKC,0.00,VWS V14.01,2013-08-01 20:23:00,
2013-08-01 16:28:00,74.6,48.0,29.49,NE,45,0.0,7.6,39,0.00,,SKC,0.00,VWS V14.01,2013-08-01 20:28:00,
2013-08-01 16:34:00,73.7,49.2,29.49,NE,45,0.0,0.4,42,0.00,,SKC,0.00,VWS V14.01,2013-08-01 20:34:00,
2013-08-01 16:39:00,72.8,49.0,29.49,NNE,22,2.0,2.0,43,0.00,,SKC,0.00,VWS V14.01,2013-08-01 20:39:00,
2013-08-01 16:42:00,72.5,48.8,29.49,ENE,68,1.5,2.0,43,0.00,,SKC,0.00,VWS V14.01,2013-08-01 20:42:00,
2013-08-01 16:47:00,71.9,48.8,29.49,NNE,22,0.0,0.0,44,0.00,,SKC,0.00,VWS V14.01,2013-08-01 20:47:00,
2013-08-01 16:52:00,71.4,49.0,29.50,NE,45,0.0,0.0,45,0.00,,SKC,0.00,VWS V14.01,2013-08-01 20:52:00,
2013-08-01 16:58:00,70.8,49.0,29.50,NE,45,0.0,0.0,46,0.00,,SKC,0.00,VWS V14.01,2013-08-01 20:58:00,
2013-08-01 17:03:00,70.5,50.4,29.50,NE,45,0.0,0.0,49,0.00,,SKC,0.00,VWS V14.01,2013-08-01 21:03:00,
2013-08-01 17:08:00,69.9,50.4,29.50,NE,45,0.0,0.0,50,0.00,,SKC,0.00,VWS V14.01,2013-08-01 21:08:00,
2013-08-01 17:13:00,69.9,50.4,29.51,ENE,68,0.0,0.0,50,0.00,,SKC,0.00,VWS V14.01,2013-08-01 21:13:00,
2013-08-01 17:18:00,69.2,50.8,29.51,SW,225,0.6,0.6,52,0.00,,SKC,0.00,VWS V14.01,2013-08-01 21:18:00,
2013-08-01 17:20:00,68.9,51.1,29.51,ENE,68,0.0,0.6,53,0.00,,SKC,0.00,VWS V14.01,2013-08-01 21:20:00,
2013-08-01 17:25:00,68.1,51.8,29.51,NW,315,0.0,0.8,56,0.00,,SKC,0.00,VWS V14.01,2013-08-01 21:25:00,
2013-08-01 17:30:00,66.5,51.3,29.51,North,0,0.0,0.8,58,0.00,,SKC,0.00,VWS V14.01,2013-08-01 21:30:00,
2013-08-01 17:36:00,64.4,51.5,29.50,NNE,22,0.0,0.0,63,0.00,,SKC,0.00,VWS V14.01,2013-08-01 21:36:00,
2013-08-01 17:41:00,61.8,49.9,29.51,NNE,22,0.0,0.0,65,0.02,,SKC,0.02,VWS V14.01,2013-08-01 21:41:00,
2013-08-01 17:46:00,60.6,50.4,29.51,NNE,22,0.0,0.0,69,0.02,,SKC,0.02,VWS V14.01,2013-08-01 21:46:00,
2013-08-01 17:51:00,59.1,49.3,29.51,NE,45,0.0,0.0,70,0.02,,SKC,0.02,VWS V14.01,2013-08-01 21:51:00,
2013-08-01 17:56:00,57.3,48.7,29.51,NNE,22,0.0,0.0,73,0.02,,SKC,0.02,VWS V14.01,2013-08-01 21:56:00,
2013-08-01 18:01:00,56.6,48.4,29.53,NNW,338,0.0,0.0,74,0.02,,SKC,0.02,VWS V14.01,2013-08-01 22:01:00,
2013-08-01 18:06:00,56.1,48.3,29.53,NW,315,0.0,0.0,75,0.02,,SKC,0.02,VWS V14.01,2013-08-01 22:06:00,
2013-08-01 18:11:00,54.3,46.9,29.52,West,270,0.0,2.0,76,0.20,,SKC,0.20,VWS V14.01,2013-08-01 22:11:00,
2013-08-01 18:16:00,53.2,45.8,29.51,NNW,338,0.0,0.0,76,0.25,,SKC,0.25,VWS V14.01,2013-08-01 22:16:00,
2013-08-01 18:21:00,52.1,45.1,29.52,North,0,0.0,0.0,77,0.27,,SKC,0.27,VWS V14.01,2013-08-01 22:21:00,
2013-08-01 18:27:00,50.9,44.6,29.51,SE,135,0.0,0.0,79,0.27,,SKC,0.27,VWS V14.01,2013-08-01 22:27:00,
2013-08-01 18:32:00,50.1,44.2,29.51,SE,135,0.0,0.0,80,0.27,,SKC,0.27,VWS V14.01,2013-08-01 22:32:00,
2013-08-01 18:37:00,48.5,43.0,29.51,SE,135,0.0,0.0,81,0.27,,SKC,0.27,VWS V14.01,2013-08-01 22:37:00,
2013-08-01 18:42:00,47.3,41.8,29.51,SE,135,0.0,0.0,81,0.27,,SKC,0.27,VWS V14.01,2013-08-01 22:42:00,
2013-08-01 18:47:00,45.8,40.6,29.51,SE,135,0.0,0.0,82,0.24,,SKC,0.27,VWS V14.01,2013-08-01 22:47:00,
2013-08-01 18:53:00,44.7,39.5,29.51,SE,135,0.0,0.0,82,0.24,,SKC,0.27,VWS V14.01,2013-08-01 22:53:00,
2013-08-01 18:58:00,43.5,38.4,29.51,SE,135,0.0,0.0,82,0.24,,SKC,0.27,VWS V14.01,2013-08-01 22:58:00,
2013-08-01 19:03:00,42.4,37.6,29.50,SE,135,0.0,0.0,83,0.24,,SKC,0.27,VWS V14.01,2013-08-01 23:03:00,
2013-08-01 19:08:00,41.3,36.5,29.50,SE,135,0.0,0.0,83,0.24,,SKC,0.27,VWS V14.01,2013-08-01 23:08:00,
2013-08-01 19:13:00,40.1,35.4,29.50,SE,135,0.0,0.0,83,0.24,,SKC,0.27,VWS V14.01,2013-08-01 23:13:00,
2013-08-01 19:18:00,39.3,34.3,29.50,SE,135,0.0,0.0,82,0.02,,SKC,0.27,VWS V14.01,2013-08-01 23:18:00,
2013-08-01 19:23:00,38.4,33.4,29.50,SE,135,0.0,0.0,82,0.02,,SKC,0.27,VWS V14.01,2013-08-01 23:23:00,
2013-08-01 19:28:00,37.5,32.2,29.50,SE,135,0.0,0.0,81,0.02,,SKC,0.27,VWS V14.01,2013-08-01 23:28:00,
2013-08-01 19:33:00,36.6,31.3,29.50,SE,135,0.0,0.0,81,0.00,,SKC,0.27,VWS V14.01,2013-08-01 23:33:00,
2013-08-01 19:38:00,36.1,30.5,29.50,SE,135,0.0,0.0,80,0.00,,SKC,0.27,VWS V14.01,2013-08-01 23:38:00,
2013-08-01 19:44:00,35.4,29.9,29.49,SE,135,0.0,0.0,80,0.00,,SKC,0.27,VWS V14.01,2013-08-01 23:44:00,
2013-08-01 19:49:00,34.7,28.9,29.49,SE,135,0.0,0.0,79,0.00,,SKC,0.27,VWS V14.01,2013-08-01 23:49:00,
2013-08-01 19:54:00,34.1,28.0,29.49,SE,135,0.0,0.0,78,0.00,,SKC,0.27,VWS V14.01,2013-08-01 23:54:00,
2013-08-01 19:59:00,33.9,27.8,29.49,SE,135,0.0,0.0,78,0.00,,SKC,0.27,VWS V14.01,2013-08-01 23:59:00,
2013-08-01 20:04:00,33.4,27.3,29.50,SE,135,0.0,0.0,78,0.00,,SKC,0.27,VWS V14.01,2013-08-02 00:04:00,
2013-08-01 20:09:00,33.2,27.1,29.50,SE,135,0.0,0.0,78,0.00,,SKC,0.27,VWS V14.01,2013-08-02 00:09:00,
2013-08-01 20:14:00,32.9,26.8,29.49,SE,135,0.0,0.0,78,0.00,,SKC,0.27,VWS V14.01,2013-08-02 00:14:00,
2013-08-01 20:19:00,32.7,26.6,29.49,SE,135,0.0,0.0,78,0.00,,SKC,0.27,VWS V14.01,2013-08-02 00:19:00,
2013-08-01 20:24:00,32.3,26.2,29.49,SE,135,0.0,0.0,78,0.00,,SKC,0.27,VWS V14.01,2013-08-02 00:24:00,
2013-08-01 20:29:00,32.3,26.2,29.49,SE,135,0.0,0.0,78,0.00,,SKC,0.27,VWS V14.01,2013-08-02 00:29:00,
2013-08-01 20:34:00,31.6,25.5,29.49,SE,135,0.0,0.0,78,0.00,,SKC,0.27,VWS V14.01,2013-08-02 00:34:00,
2013-08-01 20:39:00,31.2,25.5,29.49,SE,135,0.0,0.0,79,0.00,,SKC,0.27,VWS V14.01,2013-08-02 00:39:00,
2013-08-01 20:44:00,30.9,25.2,29.49,SE,135,0.0,0.0,79,0.00,,SKC,0.27,VWS V14.01,2013-08-02 00:44:00,
2013-08-01 20:49:00,30.3,24.6,29.49,SE,135,0.0,0.0,79,0.00,,SKC,0.27,VWS V14.01,2013-08-02 00:49:00,
2013-08-01 20:54:00,29.8,24.1,29.49,SE,135,0.0,0.0,79,0.00,,SKC,0.27,VWS V14.01,2013-08-02 00:54:00,
2013-08-01 20:59:00,29.3,23.6,29.49,SE,135,0.0,0.0,79,0.00,,SKC,0.27,VWS V14.01,2013-08-02 00:59:00,
2013-08-01 21:04:00,28.9,23.2,29.49,SE,135,0.0,0.0,79,0.00,,SKC,0.27,VWS V14.01,2013-08-02 01:04:00,
2013-08-01 21:09:00,28.4,22.7,29.50,SE,135,0.0,0.0,79,0.00,,SKC,0.27,VWS V14.01,2013-08-02 01:09:00,
2013-08-01 21:14:00,28.0,22.3,29.50,SE,135,0.0,0.0,79,0.00,,SKC,0.27,VWS V14.01,2013-08-02 01:14:00,
2013-08-01 21:20:00,27.6,22.0,29.50,SE,135,0.0,0.0,79,0.00,,SKC,0.27,VWS V14.01,2013-08-02 01:20:00,
2013-08-01 21:25:00,26.9,21.3,29.50,SE,135,0.0,0.0,79,0.00,,SKC,0.27,VWS V14.01,2013-08-02 01:25:00,
2013-08-01 21:30:00,26.9,21.3,29.50,SE,135,0.0,0.0,79,0.00,,SKC,0.27,VWS V14.01,2013-08-02 01:30:00,
2013-08-01 21:35:00,26.2,20.6,29.51,SE,135,0.0,0.0,79,0.00,,SKC,0.27,VWS V14.01,2013-08-02 01:35:00,
2013-08-01 21:40:00,26.0,20.4,29.51,SE,135,0.0,0.0,79,0.00,,SKC,0.27,VWS V14.01,2013-08-02 01:40:00,
2013-08-01 21:45:00,25.5,19.9,29.51,SE,135,0.0,0.0,79,0.00,,SKC,0.27,VWS V14.01,2013-08-02 01:45:00,
2013-08-01 21:50:00,25.1,19.5,29.51,SE,135,0.0,0.0,79,0.00,,SKC,0.27,VWS V14.01,2013-08-02 01:50:00,
2013-08-01 21:55:00,25.5,19.9,2.57,SE,135,0.0,114.1,79,99.99,,SKC,99.99,VWS V14.01,2013-08-02 01:55:00,
2013-08-01 22:00:00,24.2,18.6,29.51,SE,135,0.0,0.0,79,0.00,,SKC,0.27,VWS V14.01,2013-08-02 02:00:00,
2013-08-01 22:06:00,23.7,18.1,29.52,SE,135,0.0,0.0,79,0.00,,SKC,0.27,VWS V14.01,2013-08-02 02:06:00,
2013-08-01 22:11:00,23.3,17.8,29.52,SE,135,0.0,0.0,79,0.00,,SKC,0.27,VWS V14.01,2013-08-02 02:11:00,
2013-08-01 22:16:00,23.1,17.6,29.52,SE,135,0.0,0.0,79,0.00,,SKC,0.27,VWS V14.01,2013-08-02 02:16:00,
2013-08-01 22:21:00,22.6,17.1,29.52,SE,135,0.0,0.0,79,0.00,,SKC,0.27,VWS V14.01,2013-08-02 02:21:00,
2013-08-01 22:26:00,22.2,16.7,29.52,SE,135,0.0,0.0,79,0.00,,SKC,0.27,VWS V14.01,2013-08-02 02:26:00,
2013-08-01 22:31:00,21.9,16.4,29.52,SE,135,0.0,0.0,79,0.00,,SKC,0.27,VWS V14.01,2013-08-02 02:31:00,
2013-08-01 22:36:00,21.5,16.0,29.52,SE,135,0.0,0.0,79,0.00,,SKC,0.27,VWS V14.01,2013-08-02 02:36:00,
2013-08-01 22:41:00,21.3,15.8,29.52,SE,135,0.0,0.0,79,0.00,,SKC,0.27,VWS V14.01,2013-08-02 02:41:00,
2013-08-01 22:46:00,20.8,15.3,29.52,SE,135,0.0,0.0,79,0.00,,SKC,0.27,VWS V14.01,2013-08-02 02:46:00,
2013-08-01 22:51:00,20.6,15.1,29.52,SE,135,0.0,0.0,79,0.00,,SKC,0.27,VWS V14.01,2013-08-02 02:51:00,
2013-08-01 22:57:00,20.1,14.6,29.52,SE,135,0.0,0.0,79,0.00,,SKC,0.27,VWS V14.01,2013-08-02 02:57:00,
2013-08-01 23:02:00,19.9,14.4,29.52,SE,135,0.0,0.0,79,0.00,,SKC,0.27,VWS V14.01,2013-08-02 03:02:00,
2013-08-01 23:07:00,19.5,14.1,29.52,SE,135,0.0,0.0,79,0.00,,SKC,0.27,VWS V14.01,2013-08-02 03:07:00,
2013-08-01 23:12:00,19.2,13.8,29.52,SE,135,0.0,0.0,79,0.00,,SKC,0.27,VWS V14.01,2013-08-02 03:12:00,
2013-08-01 23:17:00,19.0,13.6,29.52,SE,135,0.0,0.0,79,0.00,,SKC,0.27,VWS V14.01,2013-08-02 03:17:00,
2013-08-01 23:22:00,18.5,13.1,29.52,SE,135,0.0,0.0,79,0.00,,SKC,0.27,VWS V14.01,2013-08-02 03:22:00,
2013-08-01 23:28:00,18.3,12.9,29.52,SE,135,0.0,0.0,79,0.00,,SKC,0.27,VWS V14.01,2013-08-02 03:28:00,
2013-08-01 23:33:00,17.9,12.5,29.52,SE,135,0.0,0.0,79,0.00,,SKC,0.27,VWS V14.01,2013-08-02 03:33:00,
2013-08-01 23:38:00,17.7,12.3,29.52,SE,135,0.0,0.0,79,0.00,,SKC,0.27,VWS V14.01,2013-08-02 03:38:00,
2013-08-01 23:43:00,17.2,11.8,29.53,SE,135,0.0,0.0,79,0.00,,SKC,0.27,VWS V14.01,2013-08-02 03:43:00,
2013-08-01 23:48:00,16.8,11.4,29.52,SE,135,0.0,0.0,79,0.00,,SKC,0.27,VWS V14.01,2013-08-02 03:48:00,
2013-08-01 23:53:00,16.5,11.1,29.52,SE,135,0.0,0.0,79,0.00,,SKC,0.27,VWS V14.01,2013-08-02 03:53:00,
2013-08-01 23:58:00,16.3,10.9,29.52,SE,135,0.0,0.0,79,0.00,,SKC,0.27,VWS V14.01,2013-08-02 03:58:00,